Overview Statistics Trail Chart Weather Telemetry Raw packets
 

This is the latest recevied weather packets stored in our database for station/object KM5VY. If no packets are shown the sender has not sent any weather packets the latest 10 day(s).

<< 42 43 44 45 46 47 48 >>
Time Temp. Humidity Pressure Rain* Wind** Luminosity Snow
1788052451 26.11° C 35% 1024.4 hPa 0 mm - - -
1788051850 27.22° C 33% 1024 hPa 0 mm - - -
1788051249 28.33° C 30% 1024 hPa 0 mm - - -
1788050648 28.33° C 29% 1023.4 hPa 0 mm - - -
1788050047 28.89° C 28% 1023.4 hPa 0 mm - - -
1788049446 29.44° C 28% 1023.4 hPa 0 mm - - -
1788048845 30° C 27% 1023 hPa 0 mm - - -
1788048244 30.56° C 27% 1023 hPa 0 mm - - -
1788047643 30.56° C 27% 1022.7 hPa 0 mm - - -
1788047042 31.11° C 26% 1022.7 hPa 0 mm - - -
1788046441 31.11° C 26% 1022.7 hPa 0 mm - - -
1788045840 31.67° C 26% 1022.7 hPa 0 mm - - -
1788045239 31.67° C 26% 1023 hPa 0 mm - - -
1788044638 31.67° C 26% 1023 hPa 0 mm - - -
1788044037 32.22° C 26% 1023 hPa 0 mm - - -
1788043436 32.22° C 25% 1023 hPa 0 mm - - -
1788042835 32.22° C 25% 1023 hPa 0 mm - - -
1788042234 32.78° C 25% 1023.4 hPa 0 mm - - -
1788041634 32.78° C 25% 1023.7 hPa 0 mm - - -
1788041032 33.33° C 25% 1023.7 hPa 0 mm - - -
1788040431 33.33° C 25% 1024 hPa 0 mm - - -
1788039830 33.89° C 25% 1024 hPa 0 mm - - -
1788039229 33.89° C 25% 1024 hPa 0 mm - - -
1788038628 34.44° C 24% 1024.4 hPa 0 mm - - -
1788038027 34.44° C 25% 1024.4 hPa 0 mm - - -

* Rain latest hour (hover to see other rain measurements)
** Current wind speed in m/s (hover to see current wind gust speed)